This is the latest recevied weather packets stored in our database for station/object TA3MHA. If no packets are shown the sender has not sent any weather packets the latest 10 day(s).
| Time | Temp. | Humidity | Pressure | Rain* | Wind** | Luminosity | Snow |
|---|---|---|---|---|---|---|---|
| 1777209901 | 24.44° C | 33% | - | 0 mm | - | 516 W/m² | - |
| 1777209601 | 24.44° C | 33% | - | 0 mm | - | 532 W/m² | - |
| 1777209301 | 24.44° C | 32% | - | 0 mm | - | 547 W/m² | - |
| 1777209000 | 24.44° C | 33% | - | 0 mm | - | 559 W/m² | - |
| 1777208701 | 24.44° C | 31% | - | 0 mm | - | 574 W/m² | - |
| 1777208400 | 24.44° C | 31% | - | 0 mm | - | 590 W/m² | - |
| 1777208100 | 24.44° C | 32% | - | 0 mm | - | 602 W/m² | - |
| 1777207800 | 24.44° C | 31% | - | 0 mm | - | 616 W/m² | - |
| 1777207501 | 25° C | 33% | - | 0 mm | - | 629 W/m² | - |
| 1777207201 | 24.44° C | 32% | - | 0 mm | - | 642 W/m² | - |
| 1777206901 | 24.44° C | 28% | - | 0 mm | - | 654 W/m² | - |
| 1777206600 | 24.44° C | 31% | - | 0 mm | - | 666 W/m² | - |
| 1777206301 | 24.44° C | 30% | - | 0 mm | - | 677 W/m² | - |
| 1777206001 | 23.89° C | 33% | - | 0 mm | - | 691 W/m² | - |
| 1777205701 | 23.89° C | 31% | - | 0 mm | - | 701 W/m² | - |
| 1777205400 | 24.44° C | 33% | - | 0 mm | - | 712 W/m² | - |
| 1777205101 | 24.44° C | 29% | - | 0 mm | - | 723 W/m² | - |
| 1777204801 | 24.44° C | 30% | - | 0 mm | - | 734 W/m² | - |
| 1777204501 | 24.44° C | 32% | - | 0 mm | - | 744 W/m² | - |
| 1777204201 | 23.89° C | 35% | - | 0 mm | - | 754 W/m² | - |
| 1777203900 | 23.89° C | 32% | - | 0 mm | - | 762 W/m² | - |
| 1777203600 | 24.44° C | 32% | - | 0 mm | - | 773 W/m² | - |
| 1777203301 | 24.44° C | 32% | - | 0 mm | - | 781 W/m² | - |
| 1777203001 | 23.89° C | 31% | - | 0 mm | - | 789 W/m² | - |
| 1777202701 | 23.89° C | 32% | - | 0 mm | - | 794 W/m² | - |
* Rain latest hour (hover to see other rain measurements)
** Current wind speed in m/s (hover to see current wind gust speed)